1494457201.15,48096,12.25,72830.8,-7.45,-27.03,-18.99,0,*5A
1494457202.36,48097,12.25,72824.0,-7.45,-27.03,-19.13,0,*58
1494457203.57,48098,12.25,72828.5,-7.45,-27.13,-19.13,0,*56
1494457204.77,48099,12.25,72826.0,-7.45,-27.13,-19.03,0,*56
1494457205.97,48100,12.25,72838.3,-7.45,-27.13,-19.03,0,*57
1494457207.17,48101,12.25,72832.0,-7.45,-27.13,-19.03,0,*56
1494457208.43,48102,12.25,72822.8,-7.45,-26.97,-18.89,0,*5B
1494457209.7,48103,12.25,72822.0,-7.43,-26.77,-18.69,0,*5C
1494457210.96,48104,12.25,72818.5,-7.43,-26.77,-18.69,0,*5B
1494457212.17,48105,12.25,72822.8,-7.45,-26.87,-18.73,0,*58
1494457213.41,48106,12.25,72812.8,-7.43,-26.65,-18.65,0,*56
1494457214.68,48107,12.25,72814.8,-7.43,-26.93,-18.69,0,*52
1494457215.94,48108,12.25,72818.3,-7.43,-26.97,-18.79,0,*58
1494457217.2,48109,12.25,72820.0,-7.43,-26.93,-18.69,0,*5C
1494457218.47,48110,12.25,72826.5,-7.43,-26.97,-18.69,0,*50
1494457219.73,48111,12.25,72822.5,-7.43,-27.13,-18.93,0,*59
1494457220.96,48112,12.25,72818.5,-7.43,-27.13,-18.83,0,*5B
1494457222.2,48113,12.25,72816.3,-7.43,-27.07,-18.69,0,*5B
1494457223.43,48114,12.25,72820.5,-7.43,-27.07,-18.79,0,*5D
1494457224.66,48115,12.25,72824.0,-7.43,-27.13,-18.83,0,*5C
1494457225.86,48116,12.25,72822.3,-7.45,-27.13,-18.83,0,*59
1494457227.06,48117,12.25,72822.5,-7.45,-27.13,-18.83,0,*58
1494457228.3,48118,12.25,72824.3,-7.43,-27.07,-18.83,0,*54
1494457229.52,48119,12.25,72828.8,-7.45,-27.19,-18.83,0,*5C
1494457230.75,48120,12.25,72816.8,-7.45,-27.13,-18.89,0,*56
1494457231.98,48121,12.25,72822.3,-7.43,-27.07,-18.79,0,*5B
1494457233.24,48122,12.25,72822.5,-7.43,-26.97,-18.83,0,*55
1494457234.5,48123,12.25,72822.3,-7.43,-26.93,-18.83,0,*50
1494457235.73,48124,12.25,72824.8,-7.45,-27.03,-18.89,0,*53
1494457236.96,48125,12.25,72826.0,-7.45,-26.81,-18.99,0,*58
1494457238.23,48126,12.25,72828.0,-7.43,-26.65,-18.93,0,*5D
1494457239.48,48127,12.25,72830.3,-7.45,-26.55,-18.89,0,*52
1494457240.71,48128,12.25,72830.0,-7.43,-26.45,-18.83,0,*50
1494457241.94,48129,12.25,72834.0,-7.47,-26.49,-18.99,0,*52
1494457243.18,48130,12.25,72834.5,-7.45,-26.49,-18.89,0,*59
1494457244.41,48131,12.25,72832.3,-7.45,-26.33,-19.03,0,*56
1494457245.62,48132,12.25,72836.3,-7.45,-26.49,-19.03,0,*58
1494457246.85,48133,12.25,72832.8,-7.45,-26.49,-19.27,0,*5F
1494457248.11,48134,12.25,72838.5,-7.45,-26.55,-19.27,0,*55
1494457249.35,48135,12.25,72830.8,-7.45,-26.45,-19.27,0,*55
1494457250.61,48136,12.25,72830.8,-7.45,-26.33,-19.31,0,*50
1494457251.88,48137,12.25,72830.5,-7.45,-26.33,-19.27,0,*56
1494457253.14,48138,12.25,72828.0,-7.45,-26.29,-19.27,0,*52
1494457254.42,48139,12.25,72828.0,-7.43,-26.29,-19.27,0,*55
1494457255.69,48140,12.25,72828.3,-7.43,-26.07,-19.27,0,*57
1494457256.95,48141,12.25,72830.5,-7.43,-26.07,-19.23,0,*52
1494457258.21,48142,12.25,72828.3,-7.43,-26.07,-19.27,0,*55
1494457259.47,48143,12.25,72832.5,-7.43,-26.07,-19.31,0,*53
1494457260.71,48144,12.25,72830.8,-7.45,-25.97,-19.47,0,*59
1494457261.98,48145,12.25,72830.0,-7.43,-26.07,-19.57,0,*55
1494457263.21,48146,12.25,72834.3,-7.39,-25.91,-19.51,0,*51
1494457264.48,48147,12.25,72824.3,-7.39,-25.91,-19.57,0,*56
1494457265.71,48148,12.25,72822.3,-7.39,-25.87,-19.51,0,*58
1494457266.95,48149,12.25,72816.8,-7.37,-25.87,-19.57,0,*51
1494457268.17,48150,12.25,72822.8,-7.37,-26.03,-19.71,0,*52
1494457269.41,48151,12.25,72824.8,-7.39,-26.03,-19.71,0,*5D
1494457270.65,48152,12.25,72824.5,-7.37,-26.17,-19.99,0,*53
1494457271.86,48153,12.25,72816.0,-7.37,-26.23,-20.09,0,*56
1494457273.07,48154,12.25,72826.5,-7.37,-26.39,-20.29,0,*58
1494457274.31,48155,12.25,72828.5,-7.37,-26.33,-20.29,0,*53
1494457275.52,48156,12.25,72812.0,-7.37,-26.39,-20.25,0,*56
1494457276.73,48157,12.25,72814.5,-7.37,-26.45,-20.29,0,*50
1494457277.97,48158,12.25,72818.8,-7.37,-26.45,-20.35,0,*52
1494457279.2,48159,12.25,72816.5,-7.37,-26.45,-20.35,0,*53
1494457280.44,48160,12.25,72816.3,-7.37,-26.39,-20.35,0,*52
1494457281.68,48161,12.25,72816.5,-7.35,-26.45,-20.43,0,*5B
1494457282.94,48162,12.25,72812.3,-7.35,-26.55,-20.43,0,*59
1494457284.23,48163,12.25,72800.3,-7.35,-26.71,-20.49,0,*54
1494457285.51,48164,12.25,72796.8,-7.35,-26.93,-20.89,0,*53
1494457286.75,48165,12.25,72796.5,-7.35,-27.03,-20.89,0,*5A
1494457287.99,48166,12.25,72804.8,-7.37,-26.93,-20.73,0,*56
1494457289.23,48167,12.25,72800.3,-7.33,-26.87,-20.83,0,*59
1494457290.51,48168,12.25,72804.8,-7.35,-27.19,-21.03,0,*5F
1494457291.8,48169,12.25,72810.5,-7.35,-27.23,-21.03,0,*57
1494457293.06,48170,12.25,72828.8,-7.35,-27.23,-21.17,0,*5A
1494457294.31,48171,12.25,72830.5,-7.35,-27.35,-21.09,0,*53
1494457295.61,48172,12.25,72820.5,-7.35,-27.45,-21.23,0,*5F
1494457296.88,48173,12.25,72808.3,-7.35,-27.55,-21.23,0,*5F
1494457298.11,48174,12.25,72798.3,-7.35,-27.77,-21.43,0,*5E
1494457299.37,48175,12.25,72788.8,-7.35,-27.89,-21.53,0,*5F
1494457300.61,48176,12.25,72794.0,-7.33,-27.89,-21.53,0,*5A
1494457301.89,48177,12.25,72806.3,-7.35,-28.05,-21.57,0,*52
1494457303.18,48178,12.25,72812.5,-7.35,-28.05,-21.57,0,*5D
1494457304.41,48179,12.25,72820.0,-7.33,-28.15,-21.53,0,*5F
1494457305.67,48180,12.25,72828.3,-7.35,-28.25,-21.73,0,*5E
1494457306.94,48181,12.25,72830.8,-7.35,-28.53,-21.87,0,*55
1494457308.23,48182,12.25,72828.3,-7.35,-28.43,-21.83,0,*53
1494457309.46,48183,12.25,72834.0,-7.33,-28.47,-21.77,0,*5B
1494457310.72,48184,12.25,72832.0,-7.33,-28.59,-21.83,0,*58
1494457311.98,48185,12.25,72828.8,-7.37,-28.79,-21.97,0,*5A
1494457313.24,48186,12.25,72828.8,-7.37,-28.79,-21.97,0,*59
1494457314.47,48187,12.25,72830.5,-7.37,-28.97,-21.97,0,*58
1494457315.7,48188,12.25,72828.8,-7.37,-28.75,-21.73,0,*51
1494457316.94,48189,12.25,72830.8,-7.37,-28.97,-21.87,0,*57
1494457318.18,48190,12.25,72828.3,-7.37,-28.97,-21.87,0,*5F
1494457319.44,48191,12.25,72832.5,-7.39,-29.23,-21.97,0,*5F
1494457320.69,48192,12.25,72830.3,-7.37,-29.29,-21.97,0,*58
1494457321.93,48193,12.25,72820.3,-7.37,-29.23,-21.87,0,*52
1494457323.14,48194,12.25,72816.8,-7.37,-29.07,-21.73,0,*58
1494457324.4,48195,12.25,72812.3,-7.37,-29.29,-21.87,0,*5E
1494457325.64,48196,12.25,72820.0,-7.37,-29.45,-21.97,0,*56
1494457326.9,48197,12.25,72822.5,-7.35,-29.61,-21.97,0,*53
1494457328.15,48198,12.25,72820.3,-7.37,-29.57,-21.87,0,*5A
1494457329.36,48199,12.25,72826.3,-7.37,-29.57,-21.73,0,*50
1494457330.59,48200,12.25,72826.3,-7.37,-29.61,-21.83,0,*59
1494457331.86,48201,12.25,72822.3,-7.39,-29.61,-21.83,0,*56
1494457333.1,48202,12.25,72816.3,-7.37,-29.45,-21.53,0,*50
1494457334.36,48203,12.25,72812.5,-7.35,-29.13,-21.39,0,*5C
1494457335.57,48204,12.25,72806.3,-7.37,-29.45,-21.43,0,*57
1494457336.81,48205,12.25,72816.0,-7.37,-29.45,-21.57,0,*53
1494457338.01,48206,12.25,72824.5,-7.37,-29.67,-21.73,0,*56
1494457339.25,48207,12.25,72820.3,-7.33,-29.73,-21.77,0,*52
1494457340.52,48208,12.25,72812.0,-7.35,-29.57,-21.53,0,*5B
1494457341.79,48209,12.25,72808.3,-7.35,-29.95,-21.87,0,*5D
1494457343.05,48210,12.25,72810.8,-7.35,-29.95,-21.83,0,*51
1494457344.32,48211,12.25,72818.5,-7.35,-29.83,-21.67,0,*5D
1494457345.56,48212,12.25,72824.3,-7.35,-29.83,-21.73,0,*5B
1494457346.82,48213,12.25,72824.5,-7.35,-29.95,-21.83,0,*52
1494457348.11,48214,12.25,72824.3,-7.35,-30.01,-21.83,0,*50
1494457349.37,48215,12.25,72820.0,-7.35,-30.27,-21.97,0,*50
1494457350.63,48216,12.25,72826.3,-7.35,-30.27,-21.97,0,*53
1494457351.91,48217,12.25,72828.3,-7.35,-30.51,-21.97,0,*53
1494457353.19,48218,12.25,72828.0,-7.35,-30.61,-21.97,0,*5F
1494457354.45,48219,12.25,72832.8,-7.35,-30.61,-22.11,0,*53
1494457355.71,48220,12.25,72830.3,-7.35,-30.61,-22.03,0,*5A
1494457356.95,48221,12.25,72824.8,-7.35,-30.83,-22.11,0,*54
1494457358.21,48222,12.25,72820.5,-7.35,-30.73,-22.03,0,*5B
1494457359.45,48223,12.25,72826.8,-7.39,-30.83,-22.03,0,*59
1494457360.66,48224,12.25,72824.0,-7.37,-30.83,-22.11,0,*53
1494457361.94,48225,12.25,72820.3,-7.39,-30.73,-21.83,0,*5B
1494457363.23,48226,12.25,72824.0,-7.39,-30.51,-21.67,0,*52
1494457364.51,48227,12.25,72826.8,-7.39,-30.61,-21.83,0,*5A
1494457365.75,48228,12.19,72820.0,-7.37,-30.67,-21.87,0,*59
1494457366.99,48229,12.25,72822.3,-7.37,-30.89,-22.03,0,*57
1494457368.27,48230,12.25,72824.5,-7.39,-30.73,-21.97,0,*5A
1494457369.56,48231,12.25,72824.3,-7.39,-30.89,-22.17,0,*55
1494457370.85,48232,12.25,72834.5,-7.39,-30.89,-22.17,0,*56
1494457372.1,48233,12.25,72832.3,-7.37,-30.83,-22.17,0,*53
1494457373.36,48234,12.25,72830.3,-7.39,-30.67,-21.97,0,*5B
1494457374.59,48235,12.25,72828.3,-7.37,-30.73,-22.11,0,*5C
1494457375.87,48236,12.25,72828.5,-7.39,-30.51,-21.83,0,*59
1494457377.13,48237,12.25,72828.5,-7.37,-30.61,-21.87,0,*51
1494457378.34,48238,12.25,72826.3,-7.37,-30.67,-22.11,0,*54
1494457379.58,48239,12.25,72826.8,-7.37,-30.73,-22.11,0,*50
1494457380.84,48240,12.25,72824.3,-7.39,-30.73,-22.11,0,*50
1494457382.1,48241,12.25,72828.0,-7.37,-30.89,-22.17,0,*5C
1494457383.34,48242,12.25,72824.8,-7.37,-30.83,-22.17,0,*55
1494457384.6,48243,12.25,72824.5,-7.37,-30.89,-22.17,0,*5E
1494457385.9,48244,12.25,72824.5,-7.39,-30.89,-22.17,0,*57
1494457387.16,48245,12.25,72826.5,-7.39,-31.01,-22.31,0,*53
1494457388.42,48246,12.25,72822.8,-7.39,-31.01,-22.17,0,*54
1494457389.68,48247,12.25,72826.0,-7.39,-31.01,-22.31,0,*51
1494457390.89,48248,12.25,72824.5,-7.37,-30.83,-22.11,0,*59
1494457392.15,48249,12.25,72824.3,-7.43,-30.89,-22.07,0,*56
1494457393.43,48250,12.25,72830.8,-7.43,-30.89,-22.21,0,*5A
1494457394.69,48251,12.25,72832.3,-7.43,-31.11,-22.41,0,*5D
1494457395.92,48252,12.25,72828.8,-7.43,-31.05,-22.41,0,*5B
1494457397.15,48253,12.25,72830.8,-7.43,-31.05,-22.41,0,*5A
1494457398.37,48254,12.25,72828.3,-7.43,-31.05,-22.41,0,*5D
1494457399.64,48255,12.25,72824.0,-7.43,-30.95,-22.53,0,*57
1494457400.85,48256,12.25,72830.3,-7.45,-31.17,-22.63,0,*5A
1494457402.12,48257,12.25,72828.3,-7.43,-31.11,-22.57,0,*5C
1494457403.35,48258,12.25,72826.8,-7.45,-31.17,-22.73,0,*55
1494457404.58,48259,12.25,72828.5,-7.45,-31.17,-22.73,0,*54
1494457405.81,48260,12.25,72824.0,-7.45,-31.17,-22.77,0,*5A
1494457407.07,48261,12.25,72824.3,-7.45,-31.11,-22.73,0,*59
1494457408.3,48262,12.25,72828.8,-7.45,-31.17,-22.73,0,*5C
1494457409.54,48263,12.25,72826.8,-7.45,-31.17,-22.77,0,*59
1494457410.77,48264,12.19,72826.3,-7.43,-31.05,-22.67,0,*5A
1494457412.01,48265,12.25,72826.5,-7.45,-31.17,-22.77,0,*5F
1494457413.24,48266,12.25,72828.8,-7.45,-31.17,-22.77,0,*5C
1494457414.48,48267,12.25,72826.8,-7.45,-31.17,-22.77,0,*5D
1494457415.71,48268,12.25,72824.5,-7.45,-31.17,-22.73,0,*56
1494457416.97,48269,12.25,72826.8,-7.45,-31.11,-22.73,0,*51
1494457418.2,48270,12.25,72828.8,-7.45,-31.29,-22.77,0,*56
1494457419.44,48271,12.25,72826.8,-7.45,-31.33,-22.77,0,*5C
1494457420.7,48272,12.25,72826.5,-7.43,-31.39,-22.83,0,*58
1494457421.93,48273,12.25,72826.0,-7.45,-31.33,-22.77,0,*5E
1494457423.17,48274,12.25,72828.3,-7.45,-31.51,-22.93,0,*57
1494457424.4,48275,12.25,72824.3,-7.45,-31.51,-22.87,0,*53
1494457425.66,48276,12.25,72828.8,-7.47,-31.51,-22.87,0,*52
1494457426.95,48277,12.25,72824.5,-7.47,-31.51,-23.03,0,*5E
1494457428.2,48278,12.25,72822.0,-7.49,-31.73,-23.09,0,*55
1494457429.41,48279,12.25,72822.5,-7.49,-31.67,-23.13,0,*5A
1494457430.62,48280,12.25,72822.0,-7.49,-31.67,-23.09,0,*57
1494457431.86,48281,12.25,72820.3,-7.49,-31.51,-22.93,0,*51
1494457433.15,48282,12.25,72826.5,-7.47,-31.51,-23.03,0,*54
1494457434.39,48283,12.25,72828.8,-7.49,-31.73,-23.13,0,*5A
1494457435.63,48284,12.25,72830.0,-7.47,-31.67,-23.09,0,*5D
1494457436.88,48285,12.25,72830.3,-7.49,-31.73,-23.09,0,*57
1494457438.09,48286,12.25,72834.3,-7.49,-31.67,-23.09,0,*51
1494457439.35,48287,12.25,72832.5,-7.49,-31.73,-23.29,0,*57
1494457440.62,48288,12.25,72832.3,-7.49,-31.85,-23.23,0,*5B
1494457441.89,48289,12.25,72832.3,-7.47,-31.79,-23.19,0,*5E
1494457443.15,48290,12.19,72830.5,-7.49,-31.73,-23.29,0,*51
1494457444.41,48291,12.25,72830.8,-7.51,-31.91,-23.39,0,*54
1494457445.66,48292,12.25,72830.0,-7.53,-31.95,-23.43,0,*5C
1494457446.92,48293,12.25,72830.3,-7.49,-31.91,-23.29,0,*5E
1494457448.21,48294,12.25,72834.5,-7.51,-31.73,-23.23,0,*56
1494457449.48,48295,12.25,72830.8,-7.53,-31.95,-23.33,0,*5C
1494457450.77,48296,12.25,72830.5,-7.51,-31.85,-23.23,0,*5D
1494457452.03,48297,12.25,72834.8,-7.53,-31.95,-23.29,0,*55
1494457453.32,48298,12.25,72834.3,-7.51,-31.91,-23.29,0,*5C
1494457454.61,48299,12.25,72834.5,-7.51,-31.91,-23.23,0,*57
1494457455.88,48300,12.25,72832.3,-7.53,-32.07,-23.49,0,*54
1494457457.14,48301,12.25,72836.3,-7.53,-32.07,-23.33,0,*58
1494457458.4,48302,12.25,72840.3,-7.53,-32.07,-23.33,0,*5B
1494457459.67,48303,12.25,72838.8,-7.53,-32.07,-23.19,0,*52
1494457460.91,48304,12.25,72838.5,-7.53,-32.01,-23.23,0,*5A
1494457462.18,48305,12.25,72836.3,-7.53,-31.95,-23.19,0,*5C
1494457463.42,48306,12.25,72836.8,-7.53,-31.73,-22.97,0,*50
1494457464.65,48307,12.25,72830.3,-7.53,-31.05,-22.31,0,*5C
1494457465.86,48308,12.25,72828.5,-7.53,-30.83,-22.07,0,*59
1494457467.13,48309,12.25,72830.0,-7.51,-30.89,-22.27,0,*52
1494457468.34,48310,12.25,72826.8,-7.49,-31.01,-22.27,0,*52
1494457469.6,48311,12.25,72826.3,-7.51,-31.01,-22.31,0,*5D
1494457470.81,48312,12.25,72822.8,-7.49,-31.33,-22.67,0,*55
1494457472.06,48313,12.25,72816.3,-7.49,-31.57,-22.93,0,*5D
1494457473.3,48314,12.25,72808.8,-7.49,-31.57,-22.97,0,*5E
1494457474.54,48315,12.25,72820.8,-7.49,-31.73,-22.93,0,*5D
1494457475.81,48316,12.25,72820.3,-7.51,-31.39,-22.67,0,*52
1494457477.07,48317,12.25,72814.5,-7.51,-31.33,-22.77,0,*58
1494457478.31,48318,12.25,72812.5,-7.49,-31.33,-22.77,0,*5E
1494457479.52,48319,12.19,72812.3,-7.49,-31.33,-22.67,0,*5E
1494457480.73,48320,12.25,72818.0,-7.49,-31.33,-22.67,0,*54
1494457481.97,48321,12.25,72822.8,-7.47,-31.29,-22.57,0,*53
1494457483.22,48322,12.25,72820.0,-7.49,-31.23,-22.63,0,*53
1494457484.43,48323,12.25,72812.3,-7.49,-31.17,-22.63,0,*55
1494457485.67,48324,12.25,72812.5,-7.47,-31.17,-22.63,0,*5C
1494457486.92,48325,12.19,72810.0,-7.49,-31.23,-22.63,0,*54
1494457488.13,48326,12.25,72812.8,-7.49,-31.17,-22.63,0,*50
1494457489.43,48327,12.25,72812.5,-7.47,-30.95,-22.47,0,*52
1494457490.67,48328,12.25,72814.0,-7.49,-31.01,-22.47,0,*5F
1494457491.88,48329,12.19,72808.5,-7.49,-30.83,-22.27,0,*53
1494457493.16,48330,12.19,72816.5,-7.47,-30.83,-22.47,0,*53
1494457494.37,48331,12.25,72814.5,-7.49,-31.01,-22.63,0,*51
1494457495.61,48332,12.25,72808.0,-7.49,-30.89,-22.53,0,*50
1494457496.82,48333,12.25,72810.5,-7.49,-31.05,-22.63,0,*57
1494457498.03,48334,12.25,72818.0,-7.49,-31.01,-22.63,0,*54
1494457499.24,48335,12.25,72818.0,-7.49,-31.01,-22.63,0,*55
1494457500.45,48336,12.25,72822.0,-7.49,-31.01,-22.63,0,*56
1494457501.69,48337,12.25,72816.5,-7.49,-30.77,-22.53,0,*54
1494457502.93,48338,12.25,72818.0,-7.49,-30.77,-22.53,0,*5B
1494457504.22,48339,12.25,72820.8,-7.47,-30.61,-22.47,0,*56
1494457505.52,48340,12.25,72822.8,-7.47,-30.61,-22.47,0,*58
1494457506.77,48341,12.25,72822.3,-7.47,-30.55,-22.27,0,*58
1494457507.99,48342,12.25,72826.3,-7.49,-30.83,-22.67,0,*5A
1494457509.22,48343,12.25,72820.0,-7.49,-31.01,-22.77,0,*51
1494457510.51,48344,12.25,72820.3,-7.47,-30.95,-22.77,0,*54
1494457511.78,48345,12.25,72818.8,-7.47,-30.95,-22.87,0,*5A
1494457513.05,48346,12.19,72818.3,-7.47,-31.11,-22.87,0,*54
1494457514.34,48347,12.25,72824.3,-7.47,-31.11,-23.03,0,*58
1494457515.58,48348,12.25,72822.5,-7.47,-31.17,-23.09,0,*5B
1494457516.88,48349,12.25,72822.5,-7.47,-31.11,-23.23,0,*54
1494457518.12,48350,12.25,72822.8,-7.47,-31.01,-23.09,0,*55
1494457519.33,48351,12.25,72820.3,-7.49,-31.01,-23.09,0,*5A
1494457520.54,48352,12.25,72824.0,-7.49,-31.01,-23.09,0,*59
1494457521.81,48353,12.25,72828.5,-7.47,-30.95,-23.09,0,*5A
1494457523.03,48354,12.25,72828.5,-7.49,-30.83,-23.09,0,*54
1494457524.25,48355,12.19,72822.0,-7.49,-30.83,-22.97,0,*53
1494457525.54,48356,12.25,72828.8,-7.47,-30.77,-23.03,0,*59
1494457526.81,48357,12.25,72822.0,-7.47,-30.73,-22.93,0,*54
1494457528.05,48358,12.25,72820.3,-7.49,-30.89,-23.09,0,*52
1494457529.29,48359,12.25,72824.3,-7.49,-30.77,-23.09,0,*52
1494457530.56,48360,12.25,72824.8,-7.47,-30.73,-22.93,0,*50
1494457531.8,48361,12.25,72830.8,-7.49,-30.89,-22.97,0,*5E
1494457533.07,48362,12.25,72834.0,-7.47,-30.83,-23.03,0,*55
1494457534.33,48363,12.25,72828.8,-7.47,-31.01,-23.03,0,*5F
1494457535.57,48364,12.25,72834.5,-7.49,-30.89,-23.09,0,*5D
1494457536.78,48365,12.25,72828.3,-7.49,-31.05,-22.97,0,*5F
1494457537.99,48366,12.19,72828.3,-7.49,-31.05,-22.97,0,*5C
1494457539.26,48367,12.25,72826.3,-7.47,-31.17,-23.03,0,*5C
1494457540.5,48368,12.25,72822.5,-7.49,-31.33,-23.23,0,*59
1494457541.77,48369,12.25,72826.8,-7.47,-31.45,-23.23,0,*57
1494457543.01,48370,12.25,72832.3,-7.49,-31.51,-23.43,0,*52
1494457544.3,48371,12.25,72820.8,-7.47,-31.51,-23.33,0,*5A
1494457545.54,48372,12.25,72822.8,-7.49,-31.33,-23.23,0,*52
1494457546.8,48373,12.25,72818.0,-7.49,-31.39,-23.29,0,*53
1494457548.04,48374,12.25,72826.3,-7.47,-31.29,-23.09,0,*59
1494457549.31,48375,12.25,72816.5,-7.47,-31.33,-23.19,0,*52
1494457550.57,48376,12.25,72818.0,-7.47,-31.33,-23.19,0,*51
1494457551.83,48377,12.19,72820.8,-7.49,-31.39,-23.29,0,*57
1494457553.1,48378,12.25,72820.5,-7.47,-31.61,-23.39,0,*5A
1494457554.33,48379,12.25,72820.8,-7.49,-31.67,-23.49,0,*54
1494457555.59,48380,12.19,72822.3,-7.49,-31.51,-23.49,0,*57
1494457556.85,48381,12.25,72826.8,-7.49,-31.39,-23.49,0,*58
1494457558.11,48382,12.19,72824.5,-7.47,-31.51,-23.39,0,*5C
1494457559.39,48383,12.25,72822.0,-7.47,-31.51,-23.53,0,*51
1494457560.68,48384,12.25,72816.0,-7.47,-31.61,-23.53,0,*55
1494457561.93,48385,12.25,72810.3,-7.47,-31.45,-23.43,0,*53
1494457563.16,48386,12.25,72808.8,-7.49,-31.51,-23.59,0,*50
1494457564.43,48387,12.19,72812.8,-7.49,-31.57,-23.49,0,*56
1494457565.66,48388,12.25,72820.5,-7.49,-31.51,-23.59,0,*5E
1494457566.9,48389,12.25,72824.8,-7.49,-31.33,-23.49,0,*5A
1494457568.16,48390,12.25,72824.5,-7.49,-31.39,-23.49,0,*58
1494457569.4,48391,12.25,72820.5,-7.49,-31.33,-23.49,0,*53
1494457570.63,48392,12.25,72822.5,-7.49,-31.39,-23.59,0,*5B
1494457571.91,48393,12.25,72824.8,-7.47,-31.51,-23.69,0,*59
1494457573.18,48394,12.25,72830.3,-7.47,-31.45,-23.69,0,*5B
1494457574.39,48395,12.25,72826.5,-7.49,-31.33,-23.59,0,*56
1494457575.65,48396,12.25,72830.3,-7.47,-31.17,-23.49,0,*5C
1494457576.88,48397,12.25,72816.8,-7.49,-31.33,-23.65,0,*5B
1494457578.14,48398,12.25,72820.8,-7.47,-31.33,-23.69,0,*56
1494457579.37,48399,12.25,72822.3,-7.49,-31.33,-23.65,0,*55
1494457580.59,48400,12.25,72820.5,-7.49,-31.33,-23.79,0,*5F
1494457581.82,48401,12.25,72820.0,-7.47,-31.17,-23.75,0,*5A
1494457583.06,48402,12.25,72816.5,-7.47,-31.29,-23.89,0,*57
1494457584.32,48403,12.25,72822.0,-7.49,-31.51,-24.21,0,*52
1494457585.59,48404,12.25,72822.3,-7.49,-31.57,-24.21,0,*53
1494457586.86,48405,12.25,72822.8,-7.49,-31.51,-24.21,0,*54
1494457588.1,48406,12.19,72816.8,-7.47,-31.45,-24.31,0,*5D
1494457589.38,48407,12.25,72824.8,-7.47,-31.45,-24.21,0,*5D
1494457590.64,48408,12.25,72826.0,-7.49,-31.39,-24.25,0,*53
1494457591.88,48409,12.19,72808.0,-7.47,-31.45,-24.35,0,*56
1494457593.11,48410,12.25,72808.5,-7.47,-31.29,-24.31,0,*50
1494457594.35,48411,12.25,72814.5,-7.47,-31.33,-24.31,0,*5A
1494457595.64,48412,12.19,72820.0,-7.47,-31.51,-24.41,0,*5A
1494457596.92,48413,12.25,72826.5,-7.47,-31.85,-24.67,0,*56
1494457598.19,48414,12.25,72828.5,-7.49,-31.85,-24.71,0,*58
1494457599.44,48415,12.19,72818.5,-7.49,-31.85,-24.61,0,*58
1494457600.73,48416,12.19,72824.3,-7.47,-31.61,-24.41,0,*5D
1494457601.93,48417,12.25,72820.0,-7.49,-31.67,-24.57,0,*53
1494457603.2,48418,12.25,72816.5,-7.49,-31.57,-24.41,0,*58
1494457604.49,48419,12.25,72820.3,-7.47,-31.85,-24.67,0,*5C
1494457605.7,48420,12.25,72830.0,-7.49,-32.01,-24.77,0,*56
1494457607.0,48421,12.25,72824.8,-7.47,-32.07,-24.83,0,*54
1494457608.29,48422,12.19,72822.8,-7.47,-32.07,-24.71,0,*5A
1494457609.58,48423,12.25,72830.0,-7.47,-32.07,-24.87,0,*52
1494457610.84,48424,12.25,72826.8,-7.49,-32.29,-24.87,0,*57
1494457612.08,48425,12.25,72830.0,-7.49,-32.19,-24.93,0,*50
1494457613.31,48426,12.25,72830.3,-7.49,-32.29,-24.93,0,*50
1494457614.58,48427,12.25,72830.5,-7.47,-31.95,-24.57,0,*53
1494457615.86,48428,12.25,72828.0,-7.47,-32.29,-24.87,0,*55
1494457617.09,48429,12.19,72826.8,-7.49,-32.29,-24.93,0,*5F
1494457618.35,48430,12.25,72830.8,-7.47,-32.39,-25.03,0,*50
1494457619.59,48431,12.25,72830.5,-7.47,-32.57,-25.19,0,*52
1494457620.83,48432,12.19,72826.5,-7.47,-32.57,-25.19,0,*51
1494457622.07,48433,12.25,72824.0,-7.47,-32.57,-25.19,0,*50
1494457623.35,48434,12.19,72818.0,-7.47,-32.69,-25.29,0,*59
1494457624.58,48435,12.19,72824.3,-7.49,-32.63,-25.23,0,*56
1494457625.85,48436,12.19,72826.8,-7.47,-32.57,-25.29,0,*56
1494457627.09,48437,12.25,72830.8,-7.47,-32.57,-25.19,0,*54
1494457628.3,48438,12.25,72828.0,-7.45,-32.69,-25.35,0,*5A
1494457629.58,48439,12.25,72834.5,-7.47,-32.69,-25.29,0,*54
1494457630.84,48440,12.25,72830.3,-7.47,-32.75,-25.35,0,*5A
1494457632.12,48441,12.25,72828.5,-7.47,-32.85,-25.49,0,*5F
1494457633.36,48442,12.25,72832.3,-7.47,-32.69,-25.35,0,*55
1494457634.61,48443,12.25,72826.3,-7.49,-33.09,-25.61,0,*5C
1494457635.87,48444,12.19,72828.8,-7.47,-32.91,-25.45,0,*53
1494457637.11,48445,12.19,72836.5,-7.47,-33.03,-25.49,0,*54
1494457638.36,48446,12.25,72836.3,-7.49,-32.97,-25.61,0,*5F
1494457639.6,48447,12.19,72834.0,-7.49,-33.09,-25.61,0,*58
1494457640.89,48448,12.19,72830.3,-7.47,-32.85,-25.45,0,*5A
1494457642.13,48449,12.25,72822.0,-7.49,-32.63,-25.39,0,*56
1494457643.38,48450,12.25,72820.8,-7.47,-32.69,-25.35,0,*56
1494457644.62,48451,12.25,72824.0,-7.47,-32.57,-25.35,0,*5A
1494457645.86,48452,12.25,72830.5,-7.47,-32.57,-25.35,0,*59
1494457647.1,48453,12.25,72834.0,-7.47,-32.69,-25.35,0,*55
1494457648.39,48454,12.25,72830.3,-7.47,-32.75,-25.45,0,*58
1494457649.6,48455,12.19,72820.0,-7.45,-32.51,-25.35,0,*5A
1494457650.85,48456,12.19,72824.3,-7.47,-32.69,-25.35,0,*50
1494457652.14,48457,12.19,72826.8,-7.47,-32.75,-25.45,0,*5B
1494457653.43,48458,12.25,72838.0,-7.47,-32.85,-25.45,0,*5B
1494457654.71,48459,12.25,72834.3,-7.43,-32.97,-25.45,0,*5D
1494457655.97,48460,12.25,72828.5,-7.45,-32.85,-25.45,0,*52
1494457657.21,48461,12.25,72834.0,-7.45,-32.85,-25.35,0,*54
1494457658.49,48462,12.25,72832.5,-7.43,-32.97,-25.45,0,*55
1494457659.71,48463,12.19,72836.0,-7.45,-33.03,-25.49,0,*52
1494457660.95,48464,12.19,72830.0,-7.45,-33.09,-25.49,0,*5F
1494457662.22,48465,12.19,72830.0,-7.43,-32.97,-25.39,0,*59
1494457663.5,48466,12.19,72820.8,-7.43,-32.97,-25.45,0,*51
1494457664.76,48467,12.19,72826.5,-7.45,-33.31,-25.81,0,*53
1494457666.04,48468,12.19,72832.0,-7.43,-33.27,-25.81,0,*5D
1494457667.32,48469,12.19,72832.8,-7.43,-33.37,-25.75,0,*56
1494457668.55,48470,12.19,72832.5,-7.45,-33.43,-25.87,0,*56
1494457669.81,48471,12.19,72832.3,-7.45,-33.49,-26.13,0,*53
1494457671.06,48472,12.19,72834.0,-7.45,-33.49,-26.03,0,*51
1494457672.29,48473,12.19,72838.0,-7.43,-33.55,-26.07,0,*5F
1494457673.53,48474,12.19,72832.5,-7.45,-33.61,-26.03,0,*5D
1494457674.77,48475,12.25,72834.5,-7.45,-33.49,-26.03,0,*56
1494457676.04,48476,12.19,72830.8,-7.45,-33.49,-26.13,0,*54
1494457677.27,48477,12.19,72830.0,-7.45,-33.77,-26.45,0,*5B
1494457678.51,48478,12.19,72824.3,-7.45,-33.43,-26.03,0,*51
1494457679.77,48479,12.25,72826.8,-7.45,-33.43,-26.13,0,*51
1494457681.04,48480,12.19,72826.0,-7.45,-33.49,-26.29,0,*54
1494457682.27,48481,12.19,72824.3,-7.45,-33.89,-26.45,0,*53
1494457683.53,48482,12.19,72820.8,-7.45,-33.77,-26.55,0,*50
1494457684.79,48483,12.19,72822.3,-7.43,-33.73,-26.49,0,*5E
1494457686.0,48484,12.19,72818.8,-7.45,-33.83,-26.65,0,*5E
1494457687.27,48485,12.19,72820.5,-7.47,-33.83,-26.71,0,*58
1494457688.55,48486,12.25,72824.3,-7.47,-33.61,-26.55,0,*51
1494457689.81,48487,12.25,72832.0,-7.47,-33.61,-26.45,0,*51
1494457691.05,48488,12.19,72828.0,-7.47,-33.67,-26.65,0,*5A
1494457692.3,48489,12.19,72830.0,-7.45,-33.61,-26.71,0,*5A
1494457693.51,48490,12.25,72836.5,-7.45,-33.67,-26.65,0,*51
1494457694.78,48491,12.19,72836.8,-7.47,-33.67,-26.81,0,*58
1494457696.07,48492,12.25,72838.5,-7.47,-33.77,-26.71,0,*55
1494457697.36,48493,12.19,72834.0,-7.47,-33.77,-26.71,0,*54
1494457698.59,48494,12.25,72832.3,-7.49,-33.55,-26.71,0,*5D
1494457699.83,48495,12.19,72834.0,-7.49,-33.67,-26.77,0,*5B